NIGHTJAR (60535 NORAD) Tracking and Keplerian Element Data

This shows tracking and keplerian element data for the satellite.

Feedback or suggestion? Click here.




ElementValue
Catalog60535
NameNIGHTJAR
Epoch Orbit5128
Epoch Day286.70876734
Epoch Year2024
RAAN1.2346
Inclination97.7468
Eccentricity0.0001361
Argument of Perigee56.746
Mean Anonmoly303.3889
Mean Motion14.92432159
Decay Rate9.528E-05
L11 60535U 24149BV 24286.70876734 .00009528 00000+0 93448-3 0 9997
L22 60535 97.7468 1.2346 0001361 56.7460 303.3889 14.92432159 51287



Live tracking and technical data element details for NIGHTJAR (NORAD 60535). NIGHTJAR can be tracked NOW for your location showing map with azimuth and elevation plus other details from your city location.







IsCatalogInMostPopularTable: catalog: 60535, numindb: 6
Update: records affected: 1



GetName: 60535 NIGHTJAR

Hit Count: updated at: Tue, 03 Dec 2024 03:32:50 GMT